Preview of NWS' New Version of Forecast
This preview is not operational and should not be used for support decisions.

Regional Weather Roundup (RWR)

Issued by National Weather Service (NWS)

                            
000
ASUS44 KJAN 180910
RWRMS 

MISSISSIPPI HOURLY WEATHER ROUNDUP
NATIONAL WEATHER SERVICE JACKSON MS
400 AM CDT SAT MAY 18 2019

NOTE: "FAIR: INDICATES FEW OR NO CLOUDS BELOW 12,000 FEET WITH NO
SIGNIFICANT WEATHER AND/OR OBSTRUCTIONS TO VISIBILITY.

MSZ001>002-007>008-010>013-018>021-025>028-034>036-181000-
NORTHWEST MISSISSIPPI
  
CITY           SKY/WX    TMP DP  RH WIND       PRES   REMARKS
BATESVILLE       N/A     64  63  94 CALM      29.92S                  
CLARKSDALE     CLEAR     68  66  94 SE7       29.90S                  
CLEVELAND      FAIR      68  64  87 S6        29.90R                  
GREENWOOD      FAIR      68  62  81 S10       29.92S                  
GREENVILLE     FAIR      66  61  84 S6        29.89S                  
OLIVE BRANCH     N/A     66  66 100 S6        29.91S                  
OXFORD         FAIR      66  63  88 SE5       29.95S                  
TUNICA           N/A     64  61  88 SE6       29.90S                  
WINONA         FAIR      64  62  93 CALM      29.94S                  
$$

MSZ003>006-009-014>017-022>024-029>033-037>039-181000-
NORTHEAST MISSISSIPPI
  
CITY           SKY/WX    TMP DP  RH WIND       PRES   REMARKS
ABERDEEN       FAIR      66  66 100 CALM      29.97R                  
COLUMBUS AFB   FAIR      66  64  92 CALM      29.95S                  
CORINTH        FAIR      68  66  94 S5        29.94S                  
GOLDN TRIANGLE FAIR      67  64  90 S3        29.96S                  
STARKVILLE     FAIR      63  61  94 CALM      29.97S                  
TUPELO         FAIR      68  64  87 S3        29.94S                  
$$

MSZ040-058-181000-
CENTRAL MISSISSIPPI
  
CITY           SKY/WX    TMP DP  RH WIND       PRES   REMARKS
JACKSON INTL   FAIR      66  62  87 SE6       29.93F                  
JACKSON HAWKNS FAIR      66  65  96 SE7       29.93F                  
MADISON        FAIR      63  63 100 CALM      29.93F                  
MERIDIAN KEY   FAIR      65  62  90 CALM      29.96F                  
MERIDIAN NAS   FAIR      66  63  90 SE3       29.97F                  
RAYMOND        FAIR      64  64 100 E6        29.92F                  
VICKSBURG VKS  SUNNY     68  68 100 CALM      29.92R                  
$$

MSZ059>079-181000-
SOUTH MISSISSIPPI
  
CITY           SKY/WX    TMP DP  RH WIND       PRES   REMARKS
BROOKHAVEN     PTSUNNY   66  66 100 SE3       29.94F                  
HATTIESBURG    FAIR      63  61  93 SE3       29.96F                  
LAUREL         SUNNY     66  65  96 E3        29.96S                  
MCCOMB         FAIR      67  65  93 SE5       29.93F FOG              
NATCHEZ        FAIR      68  66  93 S6        29.91F                  
PINE BELT      FAIR      63  63 100 CALM      29.96F FOG              
$$

MSZ080>082-181000-
COASTAL MISSISSIPPI
  
CITY           SKY/WX    TMP DP  RH WIND       PRES   REMARKS
BILOXI         NOT AVBL                                               
PASCAGOULA     FAIR      67  64  90 CALM      29.96S FOG              
GULFPORT       FAIR      78  71  79 SE12      29.93S                  
$$

LAZ007>009-015>016-023>026-181000-
NORTHEAST LOUISIANA
  
CITY           SKY/WX    TMP DP  RH WIND       PRES   REMARKS
BASTROP        FAIR      68  67  98 CALM      29.89R                  
TALLULAH/VBURG FAIR      68  66  93 SE5       29.91S                  
VIDALIA        FAIR      68  66  94 SE6       29.90S                  
$$